User: anonymous   Login
Location: Unspecified
(0.0000°N, 0.0000°E)
Time: 03:00:14
(UTC+00:00)
Language:

IGS 8B (DEMO) - Orbit

View from above orbital plane
View from above orbital plane
View from above satellite
View from above satellite

Ground track
Ground track

The orbit data is extracted from the following two-line orbital elements,

1 39062U 13002B   17231.01142666 0.00000000  00000-0  00000-0 0    09
2 39062  97.1534 350.6421 0002000   9.3079 350.6919 15.46464236    06
Epoch (UTC): 19 August 2017 00:16:27
Eccentricity: 0.0002000
inclination: 97.1534°
perigee height: 426 km
apogee height: 428 km
right ascension of ascending node: 350.6421°
argument of perigee: 9.3079°
revolutions per day: 15.46464236
mean anomaly at epoch: 350.6919°
orbit number at epoch: 0

The dashed part of the orbit path shows where the satellite is in the earth's shadow,  

DLR